EW0139 Weather Reports


time (UTC)temp
C
wind
direction
speed
KPH
gust
KPH
rain 1hr
cm
rain 24hr
cm
rain mn
cm
humidity
%
barometer
mb
20260509085746 6 19 4.8 6.4 0.00 0.00 0.00 70 1011.3
20260509084748 6 19 0.0 3.2 0.00 0.00 0.00 68 1011.1
20260509083809 6 19 3.2 6.4 0.00 0.00 0.00 67 1010.8
20260509082750 7 19 1.6 9.7 0.00 0.00 0.00 66 1010.7
20260509081755 7 9 3.2 6.4 0.00 0.00 0.00 67 1010.5
20260509080755 7 5 3.2 9.7 0.00 0.00 0.00 67 1010.5
20260509075755 7 5 4.8 8.0 0.00 0.00 0.00 67 1010.4
20260509074820 7 6 3.2 6.4 0.00 0.00 0.00 67 1010.3
20260509073820 7 36 3.2 11.3 0.00 0.00 0.00 66 1010.1
20260509072742 7 342 1.6 8.0 0.00 0.00 0.00 67 1010.0
20260509071742 7 340 4.8 9.7 0.00 0.00 0.00 67 1010.0
20260509070802 8 339 6.4 9.7 0.00 0.00 0.00 66 1009.8
20260509065745 8 345 6.4 11.3 0.00 0.00 0.00 64 1009.6
20260509064745 9 352 8.0 11.3 0.00 0.00 0.00 62 1009.7
20260509063749 10 15 3.2 6.4 0.00 0.00 0.00 61 1009.5
20260509062753 9 15 4.8 8.0 0.00 0.00 0.00 63 1009.3
20260509061754 8 15 3.2 4.8 0.00 0.00 0.00 65 1009.2
20260509060754 9 15 0.0 0.0 0.00 0.00 0.00 63 1009.1
20260509055758 9 15 0.0 0.0 0.00 0.00 0.00 63 1008.9
20260509054758 10 15 0.0 0.0 0.00 0.00 0.00 61 1009.0
20260509053759 10 15 0.0 0.0 0.00 0.00 0.00 60 1008.8
20260509052758 10 15 0.0 4.8 0.00 0.00 0.00 60 1008.7
20260509051818 10 15 3.2 3.2 0.00 0.00 0.00 60 1008.5
20260509050739 11 15 3.2 3.2 0.00 0.00 0.00 58 1008.3
20260509045804 11 15 1.6 4.8 0.00 0.00 0.00 56 1008.2
20260509044743 11 15 0.0 6.4 0.00 0.00 0.00 55 1008.1
20260509043746 12 15 0.0 4.8 0.00 0.00 0.00 54 1008.0
20260509042808 12 15 0.0 9.7 0.00 0.00 0.00 53 1008.0
20260509041752 13 32 4.8 11.3 0.00 0.00 0.00 51 1007.7
20260509040753 13 45 6.4 14.5 0.00 0.00 0.00 52 1007.4
20260509035752 13 60 1.6 11.3 0.00 0.00 0.00 51 1007.2
20260509034757 13 48 8.0 11.3 0.00 0.00 0.00 50 1006.9
20260509033743 14 21 3.2 11.3 0.00 0.00 0.00 49 1006.6
20260509032746 15 47 4.8 16.1 0.00 0.00 0.00 48 1006.4
20260509031749 15 25 4.8 16.1 0.00 0.00 0.00 47 1006.3
20260509030751 15 358 4.8 16.1 0.00 0.00 0.00 46 1006.0
20260509025754 15 18 4.8 17.7 0.00 0.00 0.00 46 1005.7
20260509024758 15 35 8.0 20.9 0.00 0.00 0.00 45 1005.6
20260509023756 15 46 3.2 25.7 0.00 0.00 0.00 44 1005.5
20260509022740 16 15 3.2 14.5 0.00 0.00 0.00 45 1005.2
20260509021742 16 17 4.8 11.3 0.00 0.00 0.00 45 1005.0
20260509020746 16 20 3.2 16.1 0.00 0.00 0.00 44 1004.8
20260509015747 16 319 11.3 16.1 0.00 0.00 0.00 43 1004.7
20260509014749 17 10 11.3 22.5 0.00 0.05 0.00 43 1004.8
20260509013749 17 348 11.3 27.4 0.00 0.05 0.00 42 1004.8
20260509012753 18 7 14.5 29.0 0.00 0.05 0.00 40 1004.7
20260509011757 17 357 17.7 32.2 0.00 0.05 0.00 40 1004.8
20260509010758 18 355 16.1 35.4 0.00 0.05 0.00 38 1004.4
20260509005820 20 301 24.1 48.3 0.00 0.05 0.00 35 1004.6
20260509004743 21 284 27.4 32.2 0.00 0.05 0.00 30 1005.0
20260509003743 21 315 9.7 37.0 0.00 0.05 0.00 31 1004.5
20260509002744 21 314 17.7 38.6 0.00 0.05 0.00 28 1004.4
20260509001742 22 255 14.5 37.0 0.00 0.05 0.00 27 1004.1
20260509000747 22 261 19.3 32.2 0.00 0.05 0.00 27 1004.3
20260508235751 22 279 25.7 37.0 0.00 0.05 0.00 27 1004.3
20260508234752 22 226 20.9 35.4 0.00 0.05 0.00 26 1004.3
20260508233752 22 278 20.9 33.8 0.00 0.05 0.00 26 1004.0
20260508232752 22 294 35.4 35.4 0.00 0.05 0.00 26 1004.1
20260508231740 22 287 16.1 19.3 0.00 0.05 0.00 26 1004.3
20260508230803 22 204 9.7 17.7 0.00 0.05 0.00 27 1004.3
20260508225742 22 263 17.7 20.9 0.00 0.05 0.00 29 1004.4
20260508224742 22 257 17.7 25.7 0.00 0.05 0.00 27 1004.7
20260508223747 23 225 14.5 29.0 0.00 0.05 0.00 27 1004.6
20260508222749 23 206 16.1 27.4 0.00 0.05 0.00 27 1004.9
20260508221749 22 246 19.3 29.0 0.00 0.05 0.00 27 1005.0
20260508220754 23 244 17.7 29.0 0.00 0.05 0.00 27 1005.2
20260508215753 23 212 8.0 27.4 0.00 0.05 0.00 26 1005.1
20260508214757 23 242 14.5 33.8 0.00 0.05 0.00 26 1005.3
20260508213757 23 237 19.3 33.8 0.00 0.05 0.00 25 1005.5
20260508212756 22 184 20.9 32.2 0.00 0.05 0.00 27 1005.7
20260508211818 22 273 11.3 35.4 0.00 0.05 0.00 27 1006.0
20260508210741 23 265 20.9 35.4 0.00 0.05 0.00 26 1006.2
20260508205802 23 262 25.7 25.7 0.00 0.05 0.00 26 1006.5
20260508204801 22 247 16.1 32.2 0.00 0.05 0.00 26 1006.8
20260508203744 22 263 17.7 40.2 0.00 0.05 0.00 27 1006.9
20260508202746 22 267 12.9 32.2 0.00 0.05 0.00 27 1007.1
20260508201746 22 257 17.7 30.6 0.00 0.05 0.00 27 1007.3
20260508200810 22 188 8.0 24.1 0.00 0.05 0.00 28 1007.2
20260508195748 22 213 19.3 30.6 0.00 0.05 0.00 28 1007.4
20260508194749 22 227 19.3 25.7 0.00 0.05 0.00 28 1007.7
20260508193751 21 234 8.0 24.1 0.00 0.05 0.00 27 1007.6
20260508192755 21 238 22.5 27.4 0.00 0.05 0.00 30 1007.8
20260508191754 21 258 16.1 29.0 0.00 0.05 0.00 28 1008.1
20260508190756 21 252 9.7 25.7 0.00 0.05 0.00 29 1008.2
20260508185755 20 236 16.1 22.5 0.00 0.05 0.00 32 1008.4
20260508184744 21 264 12.9 32.2 0.00 0.05 0.00 29 1008.8
20260508183744 20 267 19.3 22.5 0.00 0.05 0.00 30 1009.0
20260508182804 19 244 9.7 17.7 0.00 0.05 0.00 31 1009.1
20260508181745 20 205 17.7 24.1 0.00 0.05 0.00 31 1009.3
20260508180746 20 242 8.0 30.6 0.00 0.05 0.00 30 1009.5
20260508175751 20 186 9.7 20.9 0.00 0.05 0.00 31 1009.7
20260508174752 20 184 20.9 20.9 0.00 0.05 0.00 33 1010.0
20260508173813 20 201 11.3 25.7 0.00 0.05 0.00 30 1009.9
20260508172753 20 198 3.2 17.7 0.00 0.05 0.00 33 1010.0
20260508171753 19 225 11.3 22.5 0.00 0.05 0.00 31 1010.0
20260508170756 18 183 9.7 20.9 0.00 0.05 0.00 33 1010.2
20260508165739 18 211 16.1 25.7 0.00 0.05 0.00 34 1010.5
20260508164741 18 167 16.1 22.5 0.00 0.05 0.00 33 1010.6
20260508163745 18 166 16.1 24.1 0.00 0.05 0.00 37 1010.6
20260508162752 17 138 19.3 24.1 0.00 0.05 0.00 37 1010.7
20260508161815 16 170 19.3 24.1 0.00 0.05 0.00 39 1010.8
20260508160755 16 156 19.3 22.5 0.00 0.05 0.00 41 1010.9
20260508155813 15 198 16.1 19.3 0.00 0.05 0.00 43 1011.1
20260508154751 14 161 14.5 17.7 0.00 0.05 0.00 48 1011.2
20260508153816 13 190 8.0 19.3 0.00 0.05 0.00 47 1011.4
20260508152755 13 188 6.4 11.3 0.00 0.05 0.00 49 1010.5
20260508151817 12 169 4.8 11.3 0.00 0.05 0.00 48 1010.7
20260508150755 12 200 8.0 9.7 0.00 0.05 0.00 50 1010.8
20260508145738 11 200 8.0 8.0 0.00 0.05 0.00 48 1010.8
20260508144804 10 287 1.6 6.4 0.00 0.05 0.00 51 1010.8
20260508143804 10 286 0.0 8.0 0.00 0.05 0.00 54 1010.8
20260508142742 9 313 0.0 6.4 0.00 0.05 0.00 56 1010.9
20260508141741 8 313 0.0 8.0 0.00 0.05 0.00 58 1011.1
20260508140746 8 315 1.6 3.2 0.00 0.05 0.00 63 1011.1
20260508135750 7 315 1.6 6.4 0.00 0.05 0.00 63 1011.1
20260508134750 6 315 3.2 6.4 0.00 0.05 0.00 62 1011.1
20260508133809 6 315 4.8 4.8 0.00 0.05 0.00 60 1011.1
20260508132748 5 315 0.0 1.6 0.00 0.05 0.00 69 1011.1
20260508131751 3 315 0.0 3.2 0.00 0.05 0.00 73 1011.2
20260508130755 3 315 1.6 4.8 0.00 0.05 0.00 74 1011.3
20260508125756 2 315 0.0 0.0 0.00 0.05 0.00 76 1011.1
20260508124757 1 315 0.0 3.2 0.00 0.05 0.00 78 1011.2
20260508123756 0 315 4.8 4.8 0.00 0.05 0.00 79 1011.2
20260508122741 0 315 0.0 0.0 0.00 0.05 0.00 78 1011.1
20260508121742 0 315 0.0 3.2 0.00 0.05 0.00 78 1010.9
20260508120744 1 315 0.0 4.8 0.00 0.05 0.00 77 1010.7
20260508115749 1 315 0.0 0.0 0.00 0.05 0.00 76 1010.7
20260508114752 1 315 0.0 1.6 0.00 0.05 0.00 75 1010.6
20260508113753 2 315 0.0 1.6 0.00 0.05 0.00 73 1010.6
20260508112756 2 315 0.0 4.8 0.00 0.05 0.00 72 1010.6
20260508111756 3 315 1.6 8.0 0.00 0.05 0.00 68 1010.5
20260508110742 3 302 6.4 8.0 0.00 0.05 0.00 68 1010.5
20260508105741 3 313 6.4 9.7 0.00 0.05 0.00 67 1010.3
20260508104744 3 311 0.0 11.3 0.00 0.05 0.00 66 1010.3
20260508103749 4 331 8.0 14.5 0.00 0.05 0.00 65 1010.2
20260508102750 4 339 6.4 8.0 0.00 0.05 0.00 66 1010.2
20260508101755 3 299 3.2 4.8 0.00 0.05 0.00 68 1010.0
20260508100756 3 296 0.0 4.8 0.00 0.05 0.00 68 1009.9
20260508095756 4 296 3.2 6.4 0.00 0.05 0.00 67 1009.9
20260508094759 3 296 3.2 3.2 0.00 0.05 0.00 68 1009.7
20260508093742 3 279 1.6 8.0 0.00 0.05 0.00 70 1009.6
20260508092743 4 304 3.2 3.2 0.00 0.05 0.00 69 1009.5
20260508091741 4 304 3.2 14.5 0.00 0.05 0.00 69 1009.3
20260508090801 4 274 8.0 16.1 0.00 0.05 0.00 71 1009.2